Voltar ao catálogo

METEOR M2

AtivoMeteoSSO
NORAD 40069·PAYLOAD·🇷🇺 Russia

Lançado Jul 8, 2014 de Baikonur Cosmodrome

Loading…

Próximas Passagens (próximas 24 horas)

TLE

AtualizadoSource: Space-Track

Época: Sep 14, 2026, 14:39 UTC

1 40069U 14037A   26257.61065259  .00000186  00000-0  10413-3 0  9997
2 40069  98.5229 230.2282 0006497 128.4352 231.7410 14.21483812632021

Acompanhe METEOR M2 em tempo real com AllMySat

Download on the App Store